KJ5CJW Weather Reports


Display with metric or nautical units.
time (UTC)temp
F
wind
direction
speed
MPH
gust
MPH
rain 1hr
in
rain 24hr
in
rain mn
in
humidity
%
barometer
mb
20260502151531 57 16 1.0 3.0 0.00 0.00 0.00 48 1018.7
20260502151029 56 16 1.0 2.0 0.00 0.00 0.00 48 1018.6
20260502150528 56 16 2.0 3.0 0.00 0.00 0.00 48 1018.7
20260502130527 37 23 2.0 3.0 0.00 0.00 0.00 73 1018.3
20260502123517 37 137 1.0 2.0 0.00 0.00 0.00 69 1018.2
20260502123035 37 17 1.0 2.0 0.00 0.00 0.00 69 1018.2
20260502122534 37 17 1.0 2.0 0.00 0.00 0.00 68 1018.2
20260502122032 37 17 1.0 1.0 0.00 0.00 0.00 68 1018.2
20260502121531 37 17 0.0 1.0 0.00 0.00 0.00 69 1018.2
20260502121029 37 17 2.0 2.0 0.00 0.00 0.00 68 1018.1
20260502120547 37 17 2.0 3.0 0.00 0.00 0.00 67 1018.0
20260502115524 37 144 2.0 3.0 0.00 0.00 0.00 68 1018.0
20260502115022 37 17 2.0 2.0 0.00 0.00 0.00 67 1018.0
20260502114520 38 17 2.0 2.0 0.00 0.00 0.00 68 1017.9
20260502114019 38 17 2.0 3.0 0.00 0.00 0.00 67 1018.1
20260502113517 37 17 2.0 3.0 0.00 0.00 0.00 69 1018.1
20260502113015 37 60 1.0 2.0 0.00 0.00 0.00 67 1018.2
20260502112534 37 172 0.0 1.0 0.00 0.00 0.00 66 1018.2
20260502112032 38 157 1.0 2.0 0.00 0.00 0.00 66 1018.0
20260502111551 38 144 0.0 1.0 0.00 0.00 0.00 66 1018.1
20260502111029 38 0.0 0.0 0.00 0.00 0.00 65 1018.1
20260502110527 39 17 0.0 1.0 0.00 0.00 0.00 66 1018.1
20260502110025 38 17 0.0 1.0 0.00 0.00 0.00 64 1018.1
20260502105524 39 17 0.0 1.0 0.00 0.00 0.00 65 1018.1
20260502105022 39 17 1.0 3.0 0.00 0.00 0.00 63 1018.1
20260502104521 40 17 2.0 3.0 0.00 0.00 0.00 64 1018.0
20260502104019 40 17 1.0 1.0 0.00 0.00 0.00 62 1018.1
20260502103517 41 95 0.0 2.0 0.00 0.00 0.00 59 1018.1
20260502103015 42 17 1.0 1.0 0.00 0.00 0.00 57 1018.1
20260502102534 42 17 1.0 1.0 0.00 0.00 0.00 56 1018.2
20260502102032 42 17 1.0 1.0 0.00 0.00 0.00 57 1018.1
20260502101029 41 17 2.0 2.0 0.00 0.00 0.00 58 1018.0
20260502100528 40 17 2.0 3.0 0.00 0.00 0.00 60 1018.0
20260502091531 45 125 1.0 3.0 0.00 0.00 0.00 51 1018.0
20260502091029 45 117 1.0 3.0 0.00 0.00 0.00 50 1018.0
20260502090527 45 0.0 0.0 0.00 0.00 0.00 49 1018.0
20260502080106 47 58 4.0 4.0 0.00 0.00 0.00 46 1018.2
20260502071531 48 154 2.0 2.0 0.00 0.00 0.00 46 1018.1
20260502071050 48 165 0.0 2.0 0.00 0.00 0.00 45 1018.2
20260502070527 49 174 0.0 1.0 0.00 0.00 0.00 43 1018.2
20260502070026 48 146 1.0 2.0 0.00 0.00 0.00 44 1018.0
20260502065524 48 155 1.0 2.0 0.00 0.00 0.00 44 1018.1
20260502065022 48 0.0 0.0 0.00 0.00 0.00 45 1018.1
20260502064521 49 155 0.0 2.0 0.00 0.00 0.00 43 1018.0
20260502064019 50 128 3.0 6.0 0.00 0.00 0.00 42 1017.8
20260502063517 50 123 1.0 4.0 0.00 0.00 0.00 41 1017.9
20260502063016 50 191 1.0 2.0 0.00 0.00 0.00 42 1018.0
20260502062534 50 208 2.0 4.0 0.00 0.00 0.00 41 1017.8
20260502062032 50 86 6.0 8.0 0.00 0.00 0.00 41 1017.7
20260502061531 50 86 6.0 8.0 0.00 0.00 0.00 41 1017.8
20260502061050 50 68 7.0 10.0 0.00 0.00 0.00 41 1017.7
20260502060527 49 64 6.0 9.0 0.00 0.00 0.00 41 1017.8
20260502060026 50 62 5.0 8.0 0.00 0.00 0.00 42 1017.7
20260502055524 50 55 6.0 11.0 0.00 0.00 0.00 41 1017.7
20260502055022 50 63 4.0 6.0 0.00 0.00 0.00 41 1017.7
20260502054521 50 63 4.0 6.0 0.00 0.00 0.00 41 1017.5
20260502054019 50 70 5.0 7.0 0.00 0.00 0.00 41 1017.6
20260502053517 51 51 5.0 9.0 0.00 0.00 0.00 40 1017.6
20260502053016 51 74 5.0 9.0 0.00 0.00 0.00 39 1017.6
20260502052554 51 77 4.0 6.0 0.00 0.00 0.00 39 1017.6
20260502052032 51 78 7.0 9.0 0.00 0.00 0.00 40 1017.5
20260502051551 51 79 7.0 9.0 0.00 0.00 0.00 39 1017.5
20260502051029 51 62 6.0 9.0 0.00 0.00 0.00 39 1017.4
20260502050528 52 64 6.0 9.0 0.00 0.00 0.00 39 1017.5
20260502050026 52 79 6.0 9.0 0.00 0.00 0.00 38 1017.4
20260502045524 53 86 7.0 9.0 0.00 0.00 0.00 38 1017.4
20260502045023 53 92 5.0 7.0 0.00 0.00 0.00 37 1017.6
20260502044521 53 85 6.0 7.0 0.00 0.00 0.00 36 1017.5
20260502044019 54 85 6.0 10.0 0.00 0.00 0.00 36 1017.5
20260502043517 54 86 6.0 10.0 0.00 0.00 0.00 35 1017.6
20260502043016 54 73 7.0 9.0 0.00 0.00 0.00 35 1017.5
20260502042534 54 77 6.0 9.0 0.00 0.00 0.00 35 1017.5
20260502042032 54 85 5.0 9.0 0.00 0.00 0.00 35 1017.5
20260502041551 54 72 5.0 9.0 0.00 0.00 0.00 36 1017.5
20260502041029 54 64 5.0 8.0 0.00 0.00 0.00 36 1017.5
20260502040527 54 59 6.0 8.0 0.00 0.00 0.00 36 1017.3
20260502040026 53 70 7.0 11.0 0.00 0.00 0.00 37 1017.2
20260502035524 53 84 6.0 10.0 0.00 0.00 0.00 38 1017.2
20260502035022 53 98 5.0 7.0 0.00 0.00 0.00 38 1017.2
20260502034521 53 92 7.0 10.0 0.00 0.00 0.00 38 1017.2
20260502034039 53 89 6.0 10.0 0.00 0.00 0.00 38 1017.2
20260502033517 53 87 6.0 10.0 0.00 0.00 0.00 38 1017.0
20260502033035 54 81 6.0 10.0 0.00 0.00 0.00 38 1017.1
20260502032534 54 84 6.0 10.0 0.00 0.00 0.00 38 1016.9
20260502032033 54 89 6.0 10.0 0.00 0.00 0.00 37 1017.0
20260502031530 54 78 7.0 11.0 0.00 0.00 0.00 37 1016.8
20260502031028 54 76 7.0 10.0 0.00 0.00 0.00 37 1016.8
20260502030527 54 73 7.0 9.0 0.00 0.00 0.00 37 1016.7
20260502030025 54 85 7.0 11.0 0.00 0.00 0.00 38 1016.7
20260502025523 54 70 5.0 8.0 0.00 0.00 0.00 39 1016.5
20260502025021 54 71 6.0 9.0 0.00 0.00 0.00 39 1016.6
20260502024519 53 72 7.0 11.0 0.00 0.00 0.00 39 1016.5
20260502024038 53 69 7.0 10.0 0.00 0.00 0.00 41 1016.4
20260502023516 53 54 6.0 10.0 0.00 0.00 0.00 43 1016.4
20260502023035 54 53 5.0 8.0 0.00 0.00 0.00 43 1016.5
20260502022533 55 343 5.0 7.0 0.00 0.00 0.00 41 1016.4
20260502022031 56 342 4.0 7.0 0.00 0.00 0.00 42 1016.4
20260502021530 58 342 3.0 4.0 0.00 0.00 0.00 43 1016.3
20260502021028 60 342 2.0 3.0 0.00 0.00 0.00 40 1016.4
20260502020526 62 342 3.0 3.0 0.00 0.00 0.00 38 1016.4
20260502020045 63 342 2.0 3.0 0.00 0.00 0.00 31 1016.4
20260502015523 64 341 1.0 3.0 0.00 0.00 0.00 27 1016.4
20260502015021 64 341 1.0 4.0 0.00 0.00 0.00 27 1016.3
20260502014520 65 341 1.0 3.0 0.00 0.00 0.00 26 1016.3
20260502014018 65 341 1.0 3.0 0.00 0.00 0.00 27 1016.2
20260502013536 66 341 2.0 3.0 0.00 0.00 0.00 27 1016.2
20260502013035 66 341 2.0 4.0 0.00 0.00 0.00 27 1016.3
20260502012533 66 341 3.0 7.0 0.00 0.00 0.00 27 1016.3
20260502012031 67 341 2.0 4.0 0.00 0.00 0.00 26 1016.2
20260502011530 67 341 2.0 3.0 0.00 0.00 0.00 25 1016.3
20260502011028 68 341 2.0 6.0 0.00 0.00 0.00 25 1016.2
20260502010527 68 341 2.0 7.0 0.00 0.00 0.00 25 1016.3
20260502010025 68 341 4.0 7.0 0.00 0.00 0.00 26 1016.3
20260502005523 68 339 3.0 6.0 0.00 0.00 0.00 25 1016.2
20260502005021 69 284 3.0 8.0 0.00 0.00 0.00 24 1016.3
20260502004540 69 346 1.0 3.0 0.00 0.00 0.00 24 1016.2
20260502004018 69 346 3.0 6.0 0.00 0.00 0.00 24 1016.4
20260502003516 69 346 1.0 6.0 0.00 0.00 0.00 24 1016.4
20260502003055 70 334 5.0 9.0 0.00 0.00 0.00 26 1016.3
20260502002533 70 294 3.0 7.0 0.00 0.00 0.00 25 1016.3
20260502002031 70 287 4.0 9.0 0.00 0.00 0.00 26 1016.3
20260502001530 70 281 2.0 6.0 0.00 0.00 0.00 25 1016.4
20260502001027 70 264 3.0 7.0 0.00 0.00 0.00 24 1016.4
20260502000546 70 314 4.0 8.0 0.00 0.00 0.00 25 1016.5
20260502000043 70 285 5.0 8.0 0.00 0.00 0.00 26 1016.5
20260501235521 70 261 3.0 8.0 0.00 0.00 0.00 26 1016.5
20260501235020 70 286 4.0 8.0 0.00 0.00 0.00 26 1016.5
20260501234517 70 310 3.0 8.0 0.00 0.00 0.00 27 1016.6
20260501234016 70 274 4.0 9.0 0.00 0.00 0.00 27 1016.6
20260501233535 71 296 4.0 11.0 0.00 0.00 0.00 27 1016.6
20260501233033 70 300 4.0 9.0 0.00 0.00 0.00 28 1016.5
20260501232531 70 316 3.0 7.0 0.00 0.00 0.00 26 1016.5
20260501232029 70 277 4.0 9.0 0.00 0.00 0.00 27 1016.4
20260501231527 70 292 5.0 13.0 0.00 0.00 0.00 27 1016.6
20260501231025 70 261 4.0 7.0 0.00 0.00 0.00 26 1016.6
20260501230523 70 293 4.0 9.0 0.00 0.00 0.00 27 1016.6
20260501230022 70 275 5.0 9.0 0.00 0.00 0.00 27 1016.7
20260501225520 71 312 5.0 13.0 0.00 0.00 0.00 27 1016.7
20260501225019 70 331 4.0 9.0 0.00 0.00 0.00 27 1016.7
20260501224517 70 269 4.0 9.0 0.00 0.00 0.00 27 1016.7
20260501224035 70 313 2.0 7.0 0.00 0.00 0.00 26 1016.6
20260501223634 70 247 3.0 6.0 0.00 0.00 0.00 25 1016.8
20260501223032 72 282 5.0 10.0 0.00 0.00 0.00 26 1017.0
20260501222530 72 328 3.0 7.0 0.00 0.00 0.00 26 1016.9
20260501222028 71 303 4.0 8.0 0.00 0.00 0.00 25 1017.0
20260501221527 71 310 5.0 13.0 0.00 0.00 0.00 29 1017.2
20260501221025 71 299 3.0 10.0 0.00 0.00 0.00 27 1017.1
20260501220523 70 298 4.0 8.0 0.00 0.00 0.00 28 1017.2
20260501220042 70 259 3.0 7.0 0.00 0.00 0.00 28 1017.3
20260501215520 70 297 6.0 14.0 0.00 0.00 0.00 29 1017.5
20260501215018 71 267 3.0 9.0 0.00 0.00 0.00 27 1017.5
20260501214617 71 329 3.0 8.0 0.00 0.00 0.00 26 1017.5
20260501214035 71 326 5.0 10.0 0.00 0.00 0.00 28 1017.6
20260501213533 70 320 4.0 10.0 0.00 0.00 0.00 27 1017.6
20260501213031 69 307 5.0 11.0 0.00 0.00 0.00 29 1017.5
20260501212530 69 266 3.0 8.0 0.00 0.00 0.00 29 1017.6
20260501212028 69 270 6.0 15.0 0.00 0.00 0.00 27 1017.7
20260501211526 70 318 5.0 11.0 0.00 0.00 0.00 29 1017.7
20260501211024 70 284 5.0 9.0 0.00 0.00 0.00 27 1017.8
20260501210523 70 349 4.0 11.0 0.00 0.00 0.00 27 1017.8
20260501210021 70 317 6.0 13.0 0.00 0.00 0.00 29 1017.6
20260501205520 69 358 5.0 9.0 0.00 0.00 0.00 28 1017.8
20260501205018 69 304 7.0 14.0 0.00 0.00 0.00 28 1017.8
20260501204516 69 273 4.0 14.0 0.00 0.00 0.00 28 1017.8
20260501204035 68 290 6.0 15.0 0.00 0.00 0.00 29 1017.8
20260501203533 69 286 5.0 14.0 0.00 0.00 0.00 29 1017.9
20260501203031 69 325 6.0 14.0 0.00 0.00 0.00 28 1017.9
20260501202530 69 280 4.0 7.0 0.00 0.00 0.00 30 1017.9
20260501202028 69 297 2.0 6.0 0.00 0.00 0.00 28 1018.0
20260501201526 68 298 5.0 11.0 0.00 0.00 0.00 29 1017.9
20260501201025 67 282 5.0 9.0 0.00 0.00 0.00 28 1017.9
20260501200523 67 279 4.0 11.0 0.00 0.00 0.00 29 1018.0
20260501200021 67 262 5.0 10.0 0.00 0.00 0.00 29 1018.0
20260501195520 68 288 5.0 10.0 0.00 0.00 0.00 29 1018.2
20260501195018 68 302 6.0 14.0 0.00 0.00 0.00 27 1018.1
20260501194516 68 347 5.0 9.0 0.00 0.00 0.00 27 1018.2
20260501194035 68 316 5.0 9.0 0.00 0.00 0.00 28 1018.1
20260501193553 68 298 5.0 10.0 0.00 0.00 0.00 30 1018.3
20260501193031 67 292 4.0 8.0 0.00 0.00 0.00 28 1018.3
20260501192530 67 323 5.0 9.0 0.00 0.00 0.00 27 1018.2
20260501192028 67 302 3.0 9.0 0.00 0.00 0.00 28 1018.3
20260501191527 67 282 4.0 8.0 0.00 0.00 0.00 28 1018.4
20260501191025 66 296 5.0 10.0 0.00 0.00 0.00 28 1018.4
20260501190523 61 353 3.0 7.0 0.00 0.00 0.00 33 1018.4
20260501190021 66 337 4.0 9.0 0.00 0.00 0.00 29 1018.4
20260501185520 67 317 6.0 10.0 0.00 0.00 0.00 29 1018.5
20260501185018 66 335 5.0 10.0 0.00 0.00 0.00 30 1018.4
20260501184516 66 321 5.0 9.0 0.00 0.00 0.00 30 1018.6
20260501184035 61 286 5.0 10.0 0.00 0.00 0.00 35 1018.7
20260501183533 65 291 4.0 7.0 0.00 0.00 0.00 29 1018.7
20260501183032 67 303 5.0 10.0 0.00 0.00 0.00 28 1018.7
20260501182530 67 329 4.0 9.0 0.00 0.00 0.00 28 1018.8
20260501182028 67 339 4.0 8.0 0.00 0.00 0.00 31 1018.7
20260501181526 66 353 3.0 7.0 0.00 0.00 0.00 29 1018.8
20260501181025 66 331 5.0 11.0 0.00 0.00 0.00 30 1018.9
20260501180523 66 350 3.0 7.0 0.00 0.00 0.00 30 1018.8
20260501180042 65 336 4.0 9.0 0.00 0.00 0.00 31 1018.9
20260501175520 65 331 4.0 7.0 0.00 0.00 0.00 31 1018.9
20260501175018 65 304 4.0 9.0 0.00 0.00 0.00 32 1019.0
20260501174517 64 334 4.0 7.0 0.00 0.00 0.00 32 1019.1
20260501174035 63 333 4.0 10.0 0.00 0.00 0.00 31 1019.1
20260501173533 63 279 5.0 9.0 0.00 0.00 0.00 34 1019.1
20260501173032 63 289 4.0 7.0 0.00 0.00 0.00 34 1019.1
20260501172530 63 297 3.0 9.0 0.00 0.00 0.00 34 1019.2
20260501172028 63 283 4.0 9.0 0.00 0.00 0.00 34 1019.2
20260501171547 63 308 4.0 9.0 0.00 0.00 0.00 36 1019.2
20260501171025 62 285 3.0 6.0 0.00 0.00 0.00 34 1019.2
20260501170544 63 289 5.0 9.0 0.00 0.00 0.00 34 1019.3
20260501170022 63 349 3.0 8.0 0.00 0.00 0.00 32 1019.2
20260501165520 62 312 3.0 7.0 0.00 0.00 0.00 35 1019.3
20260501165019 62 314 4.0 7.0 0.00 0.00 0.00 36 1019.4
20260501164537 61 303 4.0 7.0 0.00 0.00 0.00 37 1019.3
20260501164016 62 288 4.0 8.0 0.00 0.00 0.00 36 1019.4
20260501163534 62 304 3.0 8.0 0.00 0.00 0.00 36 1019.4
20260501163033 61 304 3.0 8.0 0.00 0.00 0.00 35 1019.4
20260501162531 61 317 4.0 7.0 0.00 0.00 0.00 37 1019.3
20260501162029 61 312 3.0 11.0 0.00 0.00 0.00 38 1019.3
20260501161527 61 319 3.0 7.0 0.00 0.00 0.00 36 1019.3
20260501161025 61 314 4.0 7.0 0.00 0.00 0.00 38 1019.3
20260501160524 60 305 3.0 8.0 0.00 0.00 0.00 39 1019.4
20260501160022 60 283 4.0 7.0 0.00 0.00 0.00 40 1019.3
20260501155521 60 302 3.0 8.0 0.00 0.00 0.00 39 1019.4
20260501155019 60 301 3.0 6.0 0.00 0.00 0.00 39 1019.3
20260501154517 60 295 3.0 4.0 0.00 0.00 0.00 40 1019.3
20260501154015 59 304 2.0 4.0 0.00 0.00 0.00 39 1019.4
20260501153534 59 290 2.0 6.0 0.00 0.00 0.00 39 1019.3
20260501153053 58 289 2.0 4.0 0.00 0.00 0.00 39 1019.3
20260501152551 58 308 1.0 3.0 0.00 0.00 0.00 39 1019.3
20260501152029 57 268 2.0 3.0 0.00 0.00 0.00 39 1019.4